Location: Unspecified
(0.0000°N, 0.0000°E)
Time: 13:58:40
(UTC+00:00)

Explorer 11/Cluster Stage 4 - Pass Details

Date: 29 February 2024
Orbit: 465 x 1219 km, 28.8° (Epoch: 24 April)

Event Time Altitude Azimuth Distance (km) Brightness Sun altitude
Exits shadow 05:28:44 - 321° (NW) 3,563 9.5 -10.8°
Reaches altitude 10° 05:31:24 10° 331° (NNW) 2,735 9.0 -10.2°
Maximum altitude 05:36:41 25° 24° (NNE) 1,670 8.4 -8.9°
Drops below altitude 10° 05:41:10 10° 79° (E) 2,293 10.4 -7.8°
Sets 05:43:47 0° 92° (E) 3,086 12.2 -7.1°
